GW0067 Weather Reports


time (UTC)temp
C
wind
direction
speed
KPH
gust
KPH
rain 1hr
cm
rain 24hr
cm
rain mn
cm
humidity
%
barometer
mb
20260506222504 6 347 0.0 0.0 0.00 0.10 0.03 82 1015.7
20260506222005 6 347 0.0 0.0 0.00 0.10 0.03 81 1015.6
20260506221514 6 347 0.0 0.0 0.00 0.10 0.03 80 1015.5
20260506221007 7 347 0.0 0.0 0.00 0.10 0.03 79 1015.4
20260506220507 7 347 0.0 0.0 0.00 0.10 0.03 79 1015.4
20260506220023 7 347 0.0 0.0 0.00 0.10 0.03 78 1015.4
20260506215512 7 347 0.0 0.0 0.00 0.10 0.03 76 1015.4
20260506215008 7 347 0.0 0.0 0.00 0.10 0.03 75 1015.3
20260506214524 8 347 0.0 0.0 0.00 0.10 0.03 74 1015.4
20260506214010 8 347 0.0 0.0 0.00 0.10 0.03 74 1015.4
20260506213511 8 347 0.0 0.0 0.00 0.10 0.03 73 1015.4
20260506213027 8 347 0.0 0.0 0.00 0.10 0.03 72 1015.3
20260506212507 8 347 0.0 0.0 0.00 0.10 0.03 72 1015.3
20260506212007 9 347 0.0 0.0 0.00 0.10 0.03 71 1015.4
20260506211530 9 347 0.0 0.0 0.00 0.10 0.03 70 1015.4
20260506211007 10 347 0.0 0.0 0.00 0.10 0.03 69 1015.4
20260506210507 10 347 0.0 0.0 0.00 0.10 0.03 68 1015.3
20260506210015 10 347 0.0 0.0 0.00 0.10 0.03 67 1015.3
20260506205507 10 82 0.0 0.0 0.00 0.10 0.03 67 1015.2
20260506205008 10 45 0.0 0.0 0.00 0.10 0.03 66 1015.2
20260506204519 10 45 0.0 0.0 0.00 0.10 0.03 66 1015.1
20260506204007 10 79 0.0 0.0 0.00 0.10 0.03 65 1015.1
20260506203508 10 79 0.0 0.0 0.00 0.10 0.03 65 1015.1
20260506203023 10 79 0.0 0.0 0.00 0.10 0.03 64 1015.1
20260506202510 10 96 0.0 0.0 0.00 0.10 0.03 64 1015.1
20260506202012 10 106 0.0 0.0 0.00 0.10 0.03 63 1015.0
20260506201536 11 77 0.0 0.0 0.00 0.10 0.03 63 1015.0
20260506201008 11 75 0.0 0.0 0.00 0.10 0.03 62 1014.9
20260506200509 11 97 0.0 0.0 0.00 0.10 0.03 62 1014.8
20260506200026 11 316 0.0 0.0 0.00 0.10 0.03 62 1014.8
20260506195508 11 239 0.0 0.0 0.00 0.10 0.03 62 1014.7
20260506195008 11 253 0.0 0.0 0.00 0.10 0.03 62 1014.6
20260506194515 11 230 0.0 0.0 0.00 0.10 0.03 61 1014.6
20260506194007 11 251 0.0 0.0 0.00 0.10 0.03 62 1014.5
20260506193508 11 255 0.0 0.0 0.00 0.10 0.03 62 1014.4
20260506193025 11 230 0.0 0.0 0.00 0.10 0.03 62 1014.3
20260506192508 11 98 0.0 0.0 0.00 0.10 0.03 62 1014.4
20260506192010 11 250 0.0 0.0 0.00 0.10 0.03 62 1014.3
20260506191524 11 245 0.0 0.0 0.00 0.10 0.03 61 1014.3
20260506191011 11 252 0.0 0.0 0.00 0.10 0.03 62 1014.2
20260506190512 11 250 0.0 0.0 0.00 0.10 0.03 62 1014.3
20260506190029 11 251 0.0 0.0 0.00 0.10 0.03 62 1014.2
20260506185508 11 259 0.0 0.0 0.00 0.10 0.03 62 1014.2
20260506185011 11 259 0.0 0.0 0.00 0.10 0.03 61 1014.2
20260506184527 11 258 0.0 0.0 0.00 0.10 0.03 61 1014.2
20260506184011 11 258 0.0 0.0 0.00 0.10 0.03 62 1014.2
20260506183510 11 82 0.0 0.0 0.00 0.10 0.03 62 1014.2
20260506183018 12 257 0.0 0.0 0.00 0.10 0.03 61 1014.2
20260506182507 12 257 0.0 0.0 0.00 0.10 0.03 61 1014.1
20260506182012 12 241 0.0 0.0 0.00 0.10 0.03 61 1014.1
20260506181522 12 102 0.0 0.0 0.00 0.10 0.03 60 1014.1
20260506180509 12 237 0.0 0.0 0.00 0.10 0.03 59 1014.0
20260506180031 12 261 0.0 0.0 0.00 0.10 0.03 59 1013.9
20260506174531 12 150 0.0 0.0 0.00 0.10 0.03 58 1013.8
20260506174010 12 251 0.0 0.0 0.00 0.10 0.03 58 1013.8
20260506173510 12 228 0.0 0.0 0.00 0.10 0.03 58 1013.8
20260506173028 12 238 0.0 0.0 0.00 0.10 0.03 58 1013.8
20260506172507 12 94 0.0 0.0 0.00 0.10 0.03 58 1013.7
20260506172013 12 241 0.0 0.0 0.00 0.10 0.03 58 1013.7
20260506171539 12 162 0.0 1.6 0.00 0.10 0.03 58 1013.7
20260506171011 12 79 0.0 0.0 0.00 0.10 0.03 58 1013.7
20260506170514 13 264 0.0 1.6 0.00 0.10 0.03 58 1013.7
20260506170024 13 98 0.0 6.4 0.00 0.10 0.03 57 1013.7
20260506165508 12 235 0.0 6.4 0.00 0.10 0.03 58 1013.7
20260506165015 12 236 0.0 0.0 0.00 0.10 0.03 58 1013.7
20260506164531 12 250 0.0 0.0 0.00 0.10 0.03 57 1013.7
20260506163509 12 65 0.0 0.0 0.00 0.10 0.03 58 1013.7
20260506163028 13 81 0.0 0.0 0.00 0.10 0.03 57 1013.7
20260506162509 13 134 0.0 0.0 0.00 0.10 0.03 58 1013.7
20260506161510 13 26 0.0 4.8 0.00 0.10 0.03 55 1013.6
20260506161005 13 47 0.0 4.8 0.00 0.10 0.03 54 1013.7
20260506160505 13 214 0.0 0.0 0.00 0.10 0.03 53 1013.6
20260506160010 13 112 0.0 0.0 0.00 0.10 0.03 55 1013.7
20260506155508 13 53 0.0 6.4 0.00 0.10 0.03 55 1013.6
20260506155004 13 236 0.0 6.4 0.00 0.10 0.03 56 1013.6
20260506154511 13 261 0.0 0.0 0.00 0.10 0.03 57 1013.6
20260506154006 13 74 0.0 0.0 0.00 0.10 0.03 57 1013.6
20260506153505 13 8 0.0 8.0 0.00 0.10 0.03 57 1013.7
20260506153012 13 33 0.0 8.0 0.00 0.10 0.03 56 1013.8
20260506152505 13 20 0.0 6.4 0.00 0.10 0.03 57 1013.7
20260506151511 14 101 0.0 6.4 0.00 0.10 0.03 54 1013.8
20260506150013 13 63 0.0 1.6 0.00 0.10 0.03 56 1013.7
20260506145507 13 64 0.0 8.0 0.00 0.10 0.03 57 1013.8
20260506145007 13 207 0.0 11.3 0.00 0.10 0.03 55 1013.8
20260506144505 13 274 0.0 12.9 0.00 0.10 0.03 53 1013.9
20260506144006 14 79 0.0 12.9 0.00 0.10 0.03 54 1013.7
20260506143505 14 98 0.0 1.6 0.00 0.10 0.03 55 1013.7
20260506143007 14 246 0.0 12.9 0.00 0.10 0.03 54 1013.7
20260506142505 14 60 0.0 12.9 0.00 0.10 0.03 51 1013.7
20260506142007 15 236 0.0 8.0 0.00 0.10 0.03 51 1013.7
20260506141514 14 30 1.6 8.0 0.00 0.10 0.03 55 1013.7
20260506141008 14 53 0.0 8.0 0.00 0.10 0.03 53 1013.7
20260506140024 13 92 0.0 12.9 0.00 0.10 0.03 54 1013.7
20260506135507 14 42 1.6 17.7 0.00 0.10 0.03 51 1013.8
20260506135006 14 245 0.0 17.7 0.00 0.10 0.03 52 1013.7
20260506134514 14 225 3.2 17.7 0.00 0.10 0.03 52 1013.7
20260506134011 15 11 1.6 17.7 0.00 0.10 0.03 52 1013.7
20260506133506 15 34 1.6 16.1 0.00 0.10 0.03 50 1013.7
20260506133020 15 59 0.0 8.0 0.00 0.10 0.03 49 1013.6
20260506132005 14 114 1.6 11.3 0.00 0.10 0.03 51 1013.6
20260506130507 15 217 1.6 6.4 0.00 0.10 0.03 48 1013.7
20260506130013 15 93 0.0 12.9 0.00 0.10 0.03 49 1013.8
20260506125012 15 56 0.0 4.8 0.00 0.10 0.03 48 1013.7
20260506124521 15 237 0.0 4.8 0.00 0.10 0.03 50 1013.8
20260506124006 14 240 0.0 9.7 0.00 0.10 0.03 52 1013.7
20260506123508 15 245 1.6 8.0 0.00 0.10 0.03 49 1013.8
20260506123015 15 229 0.0 8.0 0.00 0.10 0.03 49 1013.7
20260506122510 15 224 0.0 8.0 0.00 0.10 0.03 49 1013.7
20260506122011 14 95 0.0 12.9 0.00 0.10 0.03 51 1013.8
20260506121518 14 62 3.2 12.9 0.00 0.10 0.03 50 1013.7
20260506121010 14 264 0.0 8.0 0.00 0.10 0.03 51 1013.7
20260506120011 14 41 0.0 12.9 0.00 0.10 0.03 52 1013.7
20260506115506 14 190 0.0 12.9 0.00 0.10 0.03 50 1013.8
20260506114531 13 227 0.0 8.0 0.00 0.10 0.03 52 1013.8
20260506114006 13 46 0.0 6.4 0.00 0.10 0.03 52 1013.8
20260506113021 13 46 0.0 8.0 0.00 0.10 0.03 53 1013.9
20260506112510 13 155 0.0 8.0 0.00 0.10 0.03 54 1013.9
20260506112007 13 70 0.0 6.4 0.00 0.10 0.03 53 1013.9
20260506111522 13 139 0.0 8.0 0.00 0.10 0.03 55 1013.9
20260506111012 13 60 1.6 12.9 0.00 0.10 0.03 54 1014.0
20260506110512 13 44 1.6 14.5 0.00 0.10 0.03 54 1013.8
20260506110022 13 233 0.0 14.5 0.00 0.10 0.03 57 1014.0
20260506105513 13 247 0.0 9.7 0.00 0.10 0.03 57 1014.0
20260506104514 13 246 0.0 8.0 0.00 0.10 0.03 56 1014.0
20260506104008 13 243 0.0 1.6 0.00 0.10 0.03 58 1014.0
20260506103018 13 98 0.0 1.6 0.00 0.10 0.03 58 1014.0
20260506102510 13 81 0.0 9.7 0.00 0.10 0.03 60 1014.1
20260506102005 13 244 0.0 9.7 0.00 0.10 0.03 60 1014.1
20260506101505 13 59 0.0 6.4 0.00 0.10 0.03 59 1014.2
20260506101003 13 247 0.0 0.0 0.00 0.10 0.03 59 1014.1
20260506100503 12 287 0.0 3.2 0.00 0.10 0.03 62 1014.2
20260506100018 12 17 0.0 3.2 0.00 0.10 0.03 58 1014.2
20260506095504 12 348 0.0 6.4 0.00 0.10 0.03 58 1014.1
20260506095006 12 227 0.0 6.4 0.00 0.10 0.03 59 1014.1
20260506094509 12 326 0.0 3.2 0.00 0.10 0.03 59 1014.0
20260506094007 12 66 0.0 6.4 0.00 0.10 0.03 62 1014.0
20260506093509 12 245 0.0 6.4 0.00 0.10 0.03 61 1014.0
20260506093016 12 231 0.0 6.4 0.00 0.10 0.03 64 1014.1
20260506092511 11 227 0.0 1.6 0.00 0.10 0.03 64 1014.1
20260506091505 11 191 0.0 9.7 0.00 0.10 0.03 64 1014.1
20260506091002 11 249 0.0 9.7 0.00 0.10 0.03 63 1014.0
20260506090004 11 131 0.0 4.8 0.00 0.10 0.03 65 1014.0
20260506085507 11 131 0.0 6.4 0.00 0.10 0.03 67 1014.1
20260506085004 11 237 0.0 6.4 0.00 0.10 0.03 68 1014.0
20260506084506 11 83 0.0 6.4 0.00 0.10 0.03 68 1014.0
20260506084004 10 243 0.0 3.2 0.00 0.10 0.03 69 1014.1
20260506083506 10 360 0.0 3.2 0.00 0.10 0.03 70 1014.2
20260506083022 10 101 0.0 1.6 0.00 0.10 0.03 70 1014.2
20260506082509 10 0.0 0.0 0.00 0.10 0.03 1014.2
20260506082012 10 0.0 3.2 0.00 0.10 0.03 72 1014.1
20260506081524 10 266 0.0 3.2 0.00 0.10 0.03 72 1014.1
20260506081013 10 248 0.0 1.6 0.00 0.10 0.03 72 1014.1
20260506073504 9 240 0.0 12.9 0.00 0.10 0.03 74 1014.0
20260506073025 8 37 0.0 9.7 0.00 0.10 0.03 75 1014.1
20260506072512 8 160 0.0 9.7 0.00 0.10 0.03 75 1014.2
20260506072011 8 70 1.6 9.7 0.00 0.10 0.03 75 1014.2
20260506071527 8 136 0.0 4.8 0.00 0.10 0.03 76 1014.1
20260506071006 8 136 0.0 3.2 0.00 0.10 0.03 76 1014.0
20260506070508 8 243 0.0 11.3 0.00 0.10 0.03 77 1014.0
20260506062504 7 240 0.0 6.4 0.00 0.10 0.03 80 1013.8
20260506062004 7 229 0.0 6.4 0.00 0.10 0.03 80 1013.7
20260506061513 7 259 0.0 6.4 0.00 0.10 0.03 81 1013.6
20260506061008 7 114 0.0 9.7 0.00 0.10 0.03 81 1013.6
20260506060505 7 261 1.6 11.3 0.00 0.10 0.03 81 1013.6
20260506051008 7 244 0.0 3.2 0.00 0.10 0.03 83 1013.4
20260506050512 7 316 0.0 3.2 0.00 0.10 0.03 83 1013.3
20260506045011 7 205 0.0 4.8 0.00 0.10 0.03 83 1013.3
20260506044528 7 243 0.0 8.0 0.00 0.10 0.03 83 1013.3
20260506044008 7 92 1.6 8.0 0.00 0.10 0.03 83 1013.3
20260506043508 7 229 0.0 3.2 0.00 0.10 0.03 83 1013.2
20260506042510 7 249 0.0 0.0 0.00 0.10 0.03 82 1013.3
20260506042009 7 229 0.0 0.0 0.00 0.10 0.03 82 1013.3
20260506041528 7 108 0.0 1.6 0.00 0.10 0.03 82 1013.3
20260506041008 7 83 0.0 1.6 0.00 0.10 0.03 82 1013.3
20260506040513 7 217 0.0 4.8 0.00 0.10 0.03 82 1013.3
20260506040026 7 62 0.0 4.8 0.00 0.10 0.03 82 1013.3
20260506035504 7 132 0.0 3.2 0.00 0.10 0.03 83 1013.3
20260506035007 7 242 0.0 8.0 0.00 0.10 0.03 83 1013.3
20260506034512 7 248 0.0 8.0 0.00 0.10 0.03 83 1013.3
20260506034008 8 108 0.0 0.0 0.00 0.10 0.03 84 1013.3
20260506033505 8 169 0.0 1.6 0.00 0.10 0.03 84 1013.2
20260506033026 8 21 0.0 1.6 0.00 0.10 0.03 84 1013.3
20260506032508 8 205 0.0 6.4 0.00 0.10 0.03 84 1013.3
20260506032011 8 38 0.0 6.4 0.00 0.10 0.03 84 1013.3
20260506031531 8 63 0.0 6.4 0.00 0.10 0.03 84 1013.3
20260506031009 8 88 0.0 3.2 0.00 0.10 0.03 84 1013.3
20260506030511 8 252 0.0 4.8 0.00 0.10 0.03 84 1013.3
20260506030046 8 10 0.0 4.8 0.00 0.10 0.03 84 1013.3
20260506025511 8 63 0.0 1.6 0.00 0.10 0.03 84 1013.4
20260506025012 8 77 0.0 1.6 0.00 0.10 0.03 84 1013.4
20260506024531 8 90 0.0 3.2 0.00 0.10 0.03 84 1013.4
20260506024008 8 68 0.0 3.2 0.00 0.10 0.03 84 1013.3
20260506023508 8 252 0.0 1.6 0.00 0.10 0.03 84 1013.4
20260506023015 8 271 0.0 1.6 0.00 0.10 0.03 84 1013.3
20260506022506 8 281 0.0 1.6 0.00 0.10 0.03 85 1013.3
20260506022006 8 255 0.0 0.0 0.00 0.10 0.03 85 1013.4
20260506021521 8 269 0.0 1.6 0.00 0.10 0.03 85 1013.4
20260506021008 8 221 0.0 1.6 0.00 0.10 0.03 85 1013.3
20260506020512 8 248 0.0 6.4 0.00 0.10 0.03 86 1013.4
20260506020025 8 247 0.0 6.4 0.00 0.10 0.03 86 1013.4
20260506015512 8 125 0.0 0.0 0.00 0.10 0.03 86 1013.4
20260506015010 8 25 0.0 3.2 0.00 0.10 0.03 86 1013.4
20260506014524 8 17 0.0 3.2 0.00 0.10 0.03 86 1013.4
20260506014008 8 200 0.0 0.0 0.00 0.10 0.03 85 1013.4
20260506013511 8 63 0.0 0.0 0.00 0.10 0.03 85 1013.4
20260506013025 8 122 0.0 0.0 0.00 0.10 0.03 85 1013.4
20260506012509 8 265 0.0 4.8 0.00 0.10 0.03 85 1013.5
20260506012004 8 59 0.0 4.8 0.00 0.10 0.03 85 1013.5
20260506011534 8 251 0.0 1.6 0.00 0.10 0.03 85 1013.5
20260506011008 8 97 0.0 1.6 0.00 0.10 0.03 85 1013.5
20260506010503 8 72 0.0 0.0 0.00 0.10 0.03 85 1013.5
20260506010007 8 72 0.0 0.0 0.00 0.10 0.03 85 1013.5
20260506005507 9 72 0.0 0.0 0.00 0.10 0.03 85 1013.5
20260506005003 9 37 0.0 8.0 0.00 0.10 0.03 84 1013.5
20260506004517 9 249 0.0 8.0 0.00 0.10 0.03 84 1013.5
20260506004004 9 86 0.0 0.0 0.00 0.10 0.03 84 1013.5
20260506003504 9 108 0.0 0.0 0.00 0.10 0.03 84 1013.5
20260506003015 9 54 0.0 1.6 0.00 0.10 0.03 84 1013.5
20260506002505 9 102 0.0 9.7 0.00 0.10 0.03 84 1013.5
20260506002017 9 60 0.0 11.3 0.00 0.10 0.03 84 1013.5
20260506001518 9 68 1.6 11.3 0.00 0.10 0.03 84 1013.6
20260506001002 9 78 0.0 4.8 0.00 0.10 0.03 84 1013.5
20260506000506 9 6 0.0 4.8 0.00 0.10 0.03 84 1013.5
20260506000006 9 53 0.0 4.8 0.03 0.10 0.03 84 1013.5
20260505235503 9 68 0.0 6.4 0.03 0.10 0.03 84 1013.6
20260505235003 9 99 0.0 6.4 0.08 0.10 0.03 84 1013.6
20260505234506 9 122 0.0 4.8 0.10 0.10 0.03 84 1013.6
20260505234005 9 356 0.0 4.8 0.10 0.10 0.03 84 1013.6
20260505233505 9 25 0.0 6.4 0.10 0.10 0.03 84 1013.6
20260505233007 9 60 0.0 6.4 0.10 0.10 0.03 84 1013.5
20260505232502 9 259 0.0 3.2 0.10 0.10 0.03 85 1013.6
20260505232005 10 52 0.0 3.2 0.10 0.10 0.03 85 1013.5
20260505231522 10 330 0.0 0.0 0.10 0.10 0.03 85 1013.5
20260505231010 10 102 0.0 4.8 0.10 0.10 0.03 84 1013.6
20260505230506 10 44 0.0 6.4 0.10 0.10 0.03 83 1013.6
20260505230024 10 79 0.0 6.4 0.08 0.08 0.00 82 1013.7
20260505225509 10 270 0.0 9.7 0.08 0.08 0.08 80 1013.7
20260505225003 11 1 0.0 9.7 0.03 0.03 0.03 78 1013.5
20260505224504 11 276 0.0 8.0 0.00 0.00 0.00 75 1013.5
20260505224003 11 90 1.6 0.0 0.00 0.00 0.00 1013.5
20260505223512 11 0.0 0.0 0.00 0.00 0.00 74 1013.4
20260505223027 11 200 1.6 3.2 0.00 0.00 0.00 74 1013.4